Regional Weather Roundup
Issued by NWS Wakefield, VA

Home | Current Version | Previous Version | Graphics & Text | Print | Product List | Glossary On
Versions: 1 2 3 4 5 6 7 8 9 10 11 12 13 14 15 16 17 18 19 20 21 22 23 24 25 26 27 28 29 30 31 32 33 34 35 36 37 38 39 40 41 42 43 44 45 46 47 48 49 50
000
ASUS41 KAKQ 231615
RWRAKQ

REGIONAL WEATHER ROUNDUP
NATIONAL WEATHER SERVICE WAKEFIELD VA
1200 PM EDT SAT JUL 23 2016

Note: "fair" indicates few or no clouds below 12,000 feet with no
significant weather and/or obstructions to visibility. * = Denotes
station may not report precipitation (e.g., rain,snow,etc.),
thunder or fog.

VAZ042-051-052>054-056-231700-
NORTHERN VIRGINIA

CITY           SKY/WX    TMP DP  RH WIND       PRES   REMARKS
WASH NATIONAL  FAIR      94  74  52 N12       29.94F HX 104
DULLES         FAIR      93  71  48 NW9       29.96F HX 100
FORT BELVOIR   FAIR      94  70  46 VRB6      29.94F HX  99
QUANTICO       FAIR      93  72  50 CALM      29.95F HX 101
FREDERICKSBRG*   N/A     92  71  48 CALM      29.95F HX  98
STAFFORD*      FAIR      92  67  43 W6        30.00F HX  95
WARRENTON      FAIR      94  63  35 NW5       29.97S
CULPEPER*      FAIR      90  72  54 W5        29.98S HX  97
MANASSAS*      NOT AVBL
LEESBURG*      FAIR      91  77  62 W10G18    29.98S HX 105
WINCHESTER     FAIR      90  70  51 NW7       29.99S HX  95
FRONT ROYAL*   FAIR      88  70  55 SW5       29.99S
LURAY*         FAIR      88  68  51 CALM      30.02S
$$

VAZ048-049-060>072-079>083-231700-
CENTRAL AND SOUTH CENTRAL VIRGINIA

CITY           SKY/WX    TMP DP  RH WIND       PRES   REMARKS
RICHMOND       FAIR      89  71  55 SE5       29.97S HX  95
CHESTERFIELD*  FAIR      91  66  43 SW3       29.99S
PETERSBURG*    FAIR      91  73  54 E5        29.99S HX  99
HANOVER        FAIR      92  69  47 N3        29.99S HX  97
TAPPAHANNOCK*  FAIR      93  68  43 E3        29.97S HX  97
QUINTON*       FAIR      89  74  61 CALM      29.96F HX  99
CHARLOTTSVILLE FAIR      94  67  41 SW5       29.99F HX  97
GORDONSVILLE*  FAIR      91  73  57 CALM      29.98F HX  99
ORANGE*          N/A     91  70  49 CALM      30.00F HX  97
LOUISA*        FAIR      93  72  49 CALM      29.98F HX 100
BUMPASS*       FAIR      89  72  58 CALM      29.99R HX  95
FARMVILLE*     NOT AVBL
CREWE*         FAIR      91  74  57 SE5       29.99F HX  99
FORT PICKETT*  FAIR      89  76  65 E5        29.99F HX 100
CHASE CITY*    FAIR      91  69  48 CALM      30.00F HX  95
CLARKSVILLE*   FAIR      90  73  58 N5        29.99S HX  98
SOUTH HILL*    FAIR      89  74  61 SW5       30.05S HX  99
LAWRENCEVILLE* FAIR      89  76  65 CALM      29.99S HX 100
EMPORIA*       FAIR      90  72  55 SE3       30.00S HX  96
$$

VAZ088>098-231700-
SOUTHEAST VIRGINIA

CITY           SKY/WX    TMP DP  RH WIND       PRES   REMARKS
NORFOLK        FAIR      92  72  51 N5        29.97S HX  99
VIRGINIA BEACH FAIR      96  72  45 CALM      29.96S HX 104
NORFOLK NAVAL  FAIR      92  74  55 NE3       29.98F HX 101
WEST POINT*    FAIR      90  74  59 CALM      29.97F HX  99
SALUDA*        FAIR      89  76  65 CALM      29.95F HX 100
NEWPORT NEWS   FAIR      90  75  61 CALM      29.97F HX 100
LANGLEY AFB    SUNNY     90  76  62 NE6       29.97S HX 101
FORT EUSTIS    FAIR      90  78  67 W3        29.96F HX 104
WILLIAMSBURG*  FAIR      91  79  66 S6        29.98S HX 107
HR EXEC AP*    FAIR      90  75  62 CALM      29.99F HX 100
FRANKLIN*      FAIR      88  75  65 SE3       29.98F HX  97
US460-WAKEFLD  FAIR      89  75  63 CALM      29.98S HX  99
$$

VAZ020-022-025-037-045-231700-
WEST CENTRAL AND SOUTHWEST VIRGINIA

CITY           SKY/WX    TMP DP  RH WIND       PRES   REMARKS
STAUNTON*      FAIR      85  68  56 CALM      30.06S
WAYNESBORO*    FAIR      85  65  49 CALM      30.06F
HOT SPRINGS VA FAIR      81  63  54 N3        30.20S
LYNCHBURG      FAIR      89  68  49 CALM      30.03F
DANVILLE       FAIR      90  73  57 CALM      30.01S HX  98
SOUTH BOSTON*  FAIR      90  74  59 CALM      30.00S HX  98
MARTINSVILLE   FAIR      89  69  51 NE5       30.06S
ROANOKE        FAIR      90  67  46 VRB7      30.06F
BLACKSBURG     FAIR      83  70  62 CALM      30.14F
DUBLIN*        FAIR      85  68  56 NE3       30.12F
MARION*        FAIR      85  66  52 CALM      30.16S
HILLSVILLE*    FAIR      82  67  61 NE6       30.14S
RICHLANDS*     FAIR      82  68  63 CALM      30.15F
WISE*          FAIR      84  59  42 NW3       30.16F
ABINGDON*      FAIR      86  67  52 CALM      30.11F
$$

MDZ021>025-VAZ099-100-231700-
SOUTHERN MARYLAND AND THE DELMARVA PENINSULA

CITY           SKY/WX    TMP DP  RH WIND       PRES   REMARKS
PATUXENT RIVER MOSUNNY   93  69  45 CALM      29.94F HX  98
BAY BRIDGE APT SUNNY     90  75  62 NW5       29.94S HX 100
LEONARDTOWN    SUNNY     93  66  40 NW3       29.96S HX  96
DOVER          SUNNY     92  76  59 W12       29.91S HX 103
GEORGETOWN     SUNNY     93  70  46 W7        29.93S HX  99
EASTON         SUNNY     93  79  62 NW7       29.97F HX 110
CAMBRIDGE      SUNNY     90  72  55 W6        29.93F HX  96
SALISBURY      SUNNY     92  73  53 N6        29.93F HX 100
OCEAN CITY     SUNNY     88  76  67 VRB6      29.92F HX  99
WALLOPS ISLAND FAIR      92  76  59 NW6       29.94F HX 104
ACCOMACK*      FAIR      90  73  58 CALM      29.96S HX  98
$$

NCZ012>017-030>032-231700-
NORTH CENTRAL AND EASTERN NORTH CAROLINA

CITY           SKY/WX    TMP DP  RH WIND       PRES   REMARKS
ROANOKE RAPIDS FAIR      88  73  62 CALM      30.00S HX  96
RALEIGH        MOSUNNY   89  75  63 VRB3      30.01S HX  99
ELIZABETH CITY SUNNY     88  77  69 S7        29.99R HX 100
AHOSKIE*       SUNNY     86  76  73 S3        30.00S HX  95
EDENTON*       SUNNY     88  75  65 SW6       30.01S HX  98
CURRITUCK*     SUNNY     89  75  62 SW6       29.99S HX  99
KILL DEVIL HLS SUNNY     93  74  53 W7        29.99S HX 102
MANTEO           N/A     87  76  69 W5        30.00S HX  98
CAPE HATTERAS  SUNNY     88  77  69 SW8       30.02S HX 100
TARBORO*       FAIR      89  78  69 S3        30.01S HX 103
GOLDSBORO      SUNNY     89  80  75 VRB5      29.99F HX 107
WASHINGTON     MOSUNNY   87  76  68 S5        30.01S HX  98
GREENVILLE     SUNNY     90  79  70 SW9       30.02S HX 105
NEW BERN       SUNNY     89  75  63 S8        30.03S HX  99
WILMINGTON     MOSUNNY   87  73  62 SW9       30.03F
$$

VAZ048-231700-
ELSEWHERE

CITY           SKY/WX    TMP DP  RH WIND       PRES   REMARKS
HARRISBURG PA  MOSUNNY   92  72  51 W6        29.91F HX  99
BALTIMORE      MOSUNNY   93  71  48 W8        29.93F HX 100
ANNAPOLIS      SUNNY     90  73  57 NW8       29.93F HX  98
ANDREWS AFB    FAIR      90  72  55 NW6       29.94F HX  97
PHILADELPHIA   MOSUNNY   90  70  51 W12       29.91S HX  95
GREENSBORO     MOSUNNY   92  67  43 CALM      30.03R HX  95
ROCKY MOUNT    SUNNY     89  77  67 CALM      30.00S HX 101
$$

VAZ100-231700-
MARINE

STATION/POSITION TIME  TEMP    WIND        PRES    WAVE   SWELL
                       AIR SEA DIR/SP/G            HT/PER HT/PER
                 (UTC) (F)     (DEG/KT/KT) (MB)    (FT/S) (FT/S)
BRANDYWINE LGT   1500   84     320/  6/  6   N/A
CAPE MAY NJ      1500   86 74  290/  4/  7 1012.8R
LEWES DE         1500   82 74  340/  6/  7 1013.2R
OCEAN-CITY-INLET 1500   79 68  190/  6/  8 1014.2R
WACHAPREAGUE VA  1500   90 83  230/  3/  4 1014.2R
THOMAS POINT MD  1600   87 82  280/  6/  7 1015.0F
GOOSES REEF MD   1500   86 83  350/  2/  2 1015.1R   1/ 2
COVE POINT MD    1500   85      20/  4/  5 1014.5R
SOLOMONS ISLAND  1500   90 83  260/  5/  7   N/A
BISHOPS HEAD MD  1500   87 84  140/  3/  4 1014.3R
PINEY POINT MD   1500          310/  7/  8   N/A
POTOMAC MD       1500   84 85  280/  6/  8 1013.4R   0
CAMBRIDGE MD     1500   87 85  290/  7/ 10 1013.1R
LEWISETTA VA     1500   87 84  300/  5/  6 1014.0R
RAPPAHANNOCK LGT 1500          230/  5/  6 1015.3R
STINGRAY PT      1500   85 85  160/  4/  6 1015.2R   0
YORK RVR RNG VA  1500   85     250/  5/  5 1014.6R
YORKTOWN VA      1500   84 83  340/  3/  4 1014.7R
JAMESTOWN VA     1500   83 87  280/  2/  4   N/A     0
DOMINION TERM VA 1500   82     220/  2/  3 1015.3R
KIPTOPEKE VA     1500      82  250/  6/  9   N/A
CHES BAY BRIDGE  1500   81 79  260/  5/  6 1015.0R
CAPE HENRY VA    1500   85     300/  5/  6   N/A
WILLOUBY STN VA  1500   81     240/  7/  7   N/A
CAPE HENRY BUOY  1512      76                N/A     2/ 8
1ST LANDING BUOY 1500   82 82  270/  6/  6 1014.6R
CAPE CHARLES BUO 1526      69                N/A     2/10
OFFSHORE WE BUOY 1521      81                N/A     3/ 9
64NM E OF VA BCH 1550   80 80  230/ 14/ 16 1015.0S   3/ 4   2/ 9
DUCK PIER NC     1500   83 60  230/ 10/ 12 1014.9S
44100 DUCK FRF   1505      80                N/A     2/ 9
44056 DUCK FRF   1511      69                N/A     2/10
OREGON INLET NC  1500   84 82  210/ 12/ 13 1015.9R
HATTERAS NC      1500   85 82  210/  8/ 10 1016.3R
DIAMOND SHLS NC  1550   84 86  220/ 12/ 12 1016.8S   2/ 8   2/ 8
CAPE LOOKOUT NC  1600   86     200/ 10/ 13 1016.6F
$$



USA.gov is the U.S. government's official web portal to all federal, state and local government web resources and services.